GW6740 Weather Reports


time (UTC)temp
C
wind
direction
speed
KPH
gust
KPH
rain 1hr
cm
rain 24hr
cm
rain mn
cm
humidity
%
barometer
mb
20260503034104 25 209 0.0 0.0 0.00 0.00 0.00 76 1015.7
20260503033601 25 247 0.0 0.0 0.00 0.00 0.00 76 1015.7
20260503033059 25 228 0.0 0.0 0.00 0.00 0.00 75 1015.6
20260503032557 25 26 0.0 1.6 0.00 0.00 0.00 75 1015.5
20260503032055 26 219 0.0 0.0 0.00 0.00 0.00 75 1015.4
20260503031552 26 199 0.0 0.0 0.00 0.00 0.00 74 1015.4
20260503031049 26 191 0.0 0.0 0.00 0.00 0.00 74 1015.5
20260503030545 26 217 1.6 3.2 0.00 0.00 0.00 74 1015.5
20260503030043 26 210 0.0 0.0 0.00 0.00 0.00 74 1015.4
20260503025539 26 180 0.0 0.0 0.00 0.00 0.00 73 1015.4
20260503025037 26 190 0.0 0.0 0.00 0.00 0.00 73 1015.3
20260503024533 26 226 0.0 0.0 0.00 0.00 0.00 72 1015.3
20260503024030 26 229 0.0 0.0 0.00 0.00 0.00 72 1015.3
20260503023527 26 268 0.0 0.0 0.00 0.00 0.00 72 1015.5
20260503023025 26 212 0.0 0.0 0.00 0.00 0.00 71 1015.5
20260503022520 26 226 0.0 0.0 0.00 0.00 0.00 70 1015.4
20260503022015 26 235 0.0 0.0 0.00 0.00 0.00 70 1015.5
20260503021512 26 255 0.0 0.0 0.00 0.00 0.00 69 1015.3
20260503021009 26 249 1.6 3.2 0.00 0.00 0.00 69 1015.0
20260503020506 26 196 0.0 0.0 0.00 0.00 0.00 68 1015.2
20260503020003 26 228 0.0 0.0 0.00 0.00 0.00 67 1015.2
20260503015459 26 292 0.0 1.6 0.00 0.00 0.00 66 1015.3
20260503014956 26 251 0.0 1.6 0.00 0.00 0.00 66 1015.1
20260503014453 27 64 1.6 1.6 0.00 0.00 0.00 65 1015.0
20260503013951 27 189 0.0 0.0 0.00 0.00 0.00 64 1015.2
20260503013448 27 220 3.2 4.8 0.00 0.00 0.00 64 1015.2
20260503012945 27 200 0.0 0.0 0.00 0.00 0.00 63 1015.1
20260503012443 27 216 0.0 0.0 0.00 0.00 0.00 62 1014.9
20260503011938 27 210 1.6 1.6 0.00 0.00 0.00 62 1015.0
20260503011435 27 145 0.0 1.6 0.00 0.00 0.00 61 1014.8
20260503010933 27 312 1.6 3.2 0.00 0.00 0.00 61 1014.8
20260503010429 27 316 3.2 4.8 0.00 0.00 0.00 60 1014.4
20260503005926 27 305 0.0 1.6 0.00 0.00 0.00 59 1014.5
20260503005424 27 284 0.0 1.6 0.00 0.00 0.00 58 1014.4
20260503004920 27 189 1.6 3.2 0.00 0.00 0.00 57 1014.3
20260503004417 27 266 1.6 1.6 0.00 0.00 0.00 57 1014.4
20260503003915 27 224 1.6 1.6 0.00 0.00 0.00 57 1014.3
20260503003412 28 278 1.6 3.2 0.00 0.00 0.00 56 1014.2
20260503002909 28 188 0.0 0.0 0.00 0.00 0.00 56 1014.1
20260503002406 28 253 1.6 1.6 0.00 0.00 0.00 54 1014.1
20260503001902 28 213 0.0 0.0 0.00 0.00 0.00 53 1013.8
20260503001358 28 223 1.6 3.2 0.00 0.00 0.00 52 1014.0
20260503000856 28 194 1.6 3.2 0.00 0.00 0.00 50 1013.7
20260503000353 28 237 1.6 1.6 0.00 0.00 0.00 47 1013.9
20260502235850 28 290 0.0 0.0 0.00 0.00 0.00 47 1013.7
20260502235347 28 270 0.0 1.6 0.00 0.00 0.00 46 1013.5
20260502234844 29 240 0.0 0.0 0.00 0.00 0.00 46 1013.5
20260502234341 29 216 0.0 0.0 0.00 0.00 0.00 48 1013.4
20260502233838 29 252 3.2 3.2 0.00 0.00 0.00 50 1013.2
20260502233334 30 187 0.0 0.0 0.00 0.00 0.00 50 1013.0
20260502232831 30 52 0.0 1.6 0.00 0.00 0.00 49 1013.3
20260502232327 30 227 1.6 1.6 0.00 0.00 0.00 48 1013.1
20260502231824 30 227 0.0 0.0 0.00 0.00 0.00 47 1012.8
20260502231322 30 215 0.0 0.0 0.00 0.00 0.00 46 1012.6
20260502230820 30 205 1.6 1.6 0.00 0.00 0.00 45 1012.6
20260502230318 31 193 3.2 4.8 0.00 0.00 0.00 44 1012.6
20260502225814 31 221 0.0 0.0 0.00 0.00 0.00 44 1012.5
20260502225311 31 11 1.6 1.6 0.00 0.00 0.00 43 1012.4
20260502224807 31 274 1.6 3.2 0.00 0.00 0.00 42 1012.2
20260502224304 31 232 1.6 1.6 0.00 0.00 0.00 41 1012.2
20260502223802 31 210 1.6 3.2 0.00 0.00 0.00 40 1012.3
20260502223300 31 316 1.6 3.2 0.00 0.00 0.00 41 1012.3
20260502222757 31 53 0.0 1.6 0.00 0.00 0.00 41 1012.3
20260502222254 32 208 0.0 1.6 0.00 0.00 0.00 42 1012.3
20260502221750 32 222 0.0 1.6 0.00 0.00 0.00 41 1012.4
20260502221246 32 246 1.6 1.6 0.00 0.00 0.00 42 1012.3
20260502220743 32 228 1.6 1.6 0.00 0.00 0.00 42 1012.3
20260502220239 32 183 0.0 0.0 0.00 0.00 0.00 42 1012.0
20260502215735 32 194 3.2 4.8 0.00 0.00 0.00 41 1012.3
20260502215233 32 200 1.6 1.6 0.00 0.00 0.00 41 1012.3
20260502214730 32 33 1.6 3.2 0.00 0.00 0.00 41 1012.2
20260502214227 32 239 3.2 4.8 0.00 0.00 0.00 40 1012.2
20260502213724 32 204 0.0 0.0 0.00 0.00 0.00 41 1012.0
20260502213222 32 284 1.6 1.6 0.00 0.00 0.00 41 1011.7
20260502212720 32 213 3.2 3.2 0.00 0.00 0.00 40 1011.9
20260502212218 32 236 0.0 1.6 0.00 0.00 0.00 41 1011.8
20260502211714 32 206 1.6 1.6 0.00 0.00 0.00 39 1011.9
20260502211211 32 41 1.6 3.2 0.00 0.00 0.00 39 1011.9
20260502210708 33 359 1.6 1.6 0.00 0.00 0.00 37 1011.8
20260502210205 33 86 1.6 3.2 0.00 0.00 0.00 38 1011.7
20260502205702 33 166 1.6 3.2 0.00 0.00 0.00 38 1011.7
20260502205158 33 303 1.6 3.2 0.00 0.00 0.00 39 1011.5
20260502204655 33 33 1.6 1.6 0.00 0.00 0.00 40 1011.6
20260502204153 33 290 1.6 1.6 0.00 0.00 0.00 40 1011.8
20260502203650 33 203 0.0 0.0 0.00 0.00 0.00 38 1011.8
20260502203148 33 214 1.6 1.6 0.00 0.00 0.00 38 1011.7
20260502202642 33 160 1.6 3.2 0.00 0.00 0.00 39 1011.8
20260502202141 33 209 0.0 1.6 0.00 0.00 0.00 39 1011.8
20260502201637 33 95 3.2 6.4 0.00 0.00 0.00 37 1011.9
20260502201134 33 205 4.8 9.7 0.00 0.00 0.00 39 1012.1
20260502200629 33 133 3.2 3.2 0.00 0.00 0.00 39 1012.0
20260502200127 33 272 1.6 3.2 0.00 0.00 0.00 41 1012.3
20260502195626 33 196 0.0 1.6 0.00 0.00 0.00 41 1012.3
20260502195120 33 215 1.6 3.2 0.00 0.00 0.00 39 1012.3
20260502194618 33 215 1.6 3.2 0.00 0.00 0.00 39 1012.6
20260502194114 33 194 0.0 0.0 0.00 0.00 0.00 43 1012.4
20260502193611 33 186 3.2 3.2 0.00 0.00 0.00 41 1012.3
20260502193108 33 176 3.2 4.8 0.00 0.00 0.00 42 1012.6
20260502192603 33 106 1.6 3.2 0.00 0.00 0.00 43 1012.6
20260502192101 33 235 4.8 6.4 0.00 0.00 0.00 42 1012.4
20260502191558 33 179 3.2 4.8 0.00 0.00 0.00 41 1012.8
20260502191055 33 236 0.0 1.6 0.00 0.00 0.00 45 1012.6
20260502190553 33 220 3.2 4.8 0.00 0.00 0.00 40 1012.6
20260502190050 33 132 1.6 1.6 0.00 0.00 0.00 42 1012.7
20260502185544 33 193 3.2 3.2 0.00 0.00 0.00 44 1012.9
20260502185042 33 7 1.6 3.2 0.00 0.00 0.00 45 1012.9
20260502184538 33 281 3.2 4.8 0.00 0.00 0.00 45 1012.8
20260502184034 33 248 1.6 1.6 0.00 0.00 0.00 45 1012.8
20260502183530 33 78 0.0 1.6 0.00 0.00 0.00 47 1012.7
20260502183026 33 215 1.6 1.6 0.00 0.00 0.00 46 1013.1
20260502182521 33 275 0.0 0.0 0.00 0.00 0.00 47 1012.9
20260502182018 33 353 1.6 1.6 0.00 0.00 0.00 47 1013.1
20260502181516 32 239 1.6 1.6 0.00 0.00 0.00 48 1013.0
20260502181014 33 228 0.0 0.0 0.00 0.00 0.00 48 1013.2
20260502180511 33 225 0.0 1.6 0.00 0.00 0.00 47 1013.1
20260502170436 33 197 0.0 1.6 0.00 0.00 0.00 51 1013.5
20260502163919 33 235 6.4 9.7 0.00 0.00 0.00 51 1013.4
20260502163415 33 210 0.0 1.6 0.00 0.00 0.00 52 1013.5
20260502162913 33 192 1.6 1.6 0.00 0.00 0.00 52 1013.7
20260502162410 32 160 1.6 1.6 0.00 0.00 0.00 52 1013.6
20260502161907 32 207 3.2 4.8 0.00 0.00 0.00 54 1013.7
20260502161403 32 165 3.2 4.8 0.00 0.00 0.00 56 1013.8
20260502160901 31 189 3.2 3.2 0.00 0.00 0.00 56 1013.9
20260502160359 31 236 1.6 1.6 0.00 0.00 0.00 59 1013.8
20260502152340 31 154 0.0 1.6 0.00 0.00 0.00 64 1014.0
20260502151837 31 306 1.6 1.6 0.00 0.00 0.00 62 1013.9
20260502151334 32 262 1.6 1.6 0.00 0.00 0.00 60 1014.0
20260502150831 31 169 1.6 1.6 0.00 0.00 0.00 63 1013.9
20260502150327 31 180 3.2 4.8 0.00 0.00 0.00 65 1014.0
20260502130716 27 242 3.2 3.2 0.00 0.00 0.00 75 1013.5
20260502130214 27 194 1.6 1.6 0.00 0.00 0.00 74 1013.7
20260502123700 26 352 1.6 1.6 0.00 0.00 0.00 79 1013.7
20260502123156 26 198 0.0 0.0 0.00 0.00 0.00 82 1013.7
20260502122652 25 188 0.0 0.0 0.00 0.00 0.00 83 1013.7
20260502122149 25 197 0.0 0.0 0.00 0.00 0.00 83 1013.6
20260502121647 25 226 1.6 1.6 0.00 0.00 0.00 85 1013.7
20260502121144 25 193 0.0 0.0 0.00 0.00 0.00 87 1013.5
20260502120641 24 224 0.0 0.0 0.00 0.00 0.00 88 1013.8
20260502120138 24 221 0.0 1.6 0.00 0.00 0.00 88 1013.5
20260502115635 24 218 0.0 0.0 0.00 0.00 0.00 90 1013.5
20260502115131 23 218 0.0 0.0 0.00 0.00 0.00 90 1013.4
20260502114627 23 218 0.0 0.0 0.00 0.00 0.00 91 1013.7
20260502114125 23 235 0.0 0.0 0.00 0.00 0.00 91 1013.6
20260502113622 23 235 0.0 0.0 0.00 0.00 0.00 91 1013.5
20260502113121 23 235 0.0 0.0 0.00 0.00 0.00 91 1013.7
20260502112618 23 235 0.0 0.0 0.00 0.00 0.00 91 1013.6
20260502112115 23 235 0.0 0.0 0.00 0.00 0.00 91 1013.5
20260502111613 23 235 0.0 0.0 0.00 0.00 0.00 91 1013.5
20260502111110 23 235 0.0 0.0 0.00 0.00 0.00 91 1013.6
20260502110608 23 235 0.0 0.0 0.00 0.00 0.00 91 1013.5
20260502110105 23 235 0.0 0.0 0.00 0.00 0.00 91 1013.4
20260502105602 23 235 0.0 0.0 0.00 0.00 0.00 92 1013.5
20260502105059 22 235 0.0 0.0 0.00 0.00 0.00 92 1013.5
20260502104556 22 235 0.0 0.0 0.00 0.00 0.00 92 1013.2
20260502104054 22 234 0.0 0.0 0.00 0.00 0.00 92 1013.4
20260502103551 22 235 0.0 0.0 0.00 0.00 0.00 93 1013.3
20260502103050 22 235 0.0 0.0 0.00 0.00 0.00 93 1013.4
20260502102545 22 235 0.0 0.0 0.00 0.00 0.00 93 1013.4
20260502102043 22 240 0.0 0.0 0.00 0.00 0.00 93 1013.5
20260502101540 22 242 0.0 0.0 0.00 0.00 0.00 93 1013.5
20260502101039 22 242 0.0 0.0 0.00 0.00 0.00 93 1013.5
20260502100537 22 242 0.0 0.0 0.00 0.00 0.00 93 1013.3
20260502091512 22 303 0.0 0.0 0.00 0.00 0.00 93 1013.3
20260502091009 22 307 0.0 0.0 0.00 0.00 0.00 92 1013.3
20260502090506 22 283 0.0 0.0 0.00 0.00 0.00 92 1013.3
20260502071400 22 214 0.0 0.0 0.00 0.00 0.00 89 1013.2
20260502070858 22 214 0.0 0.0 0.00 0.00 0.00 89 1013.1
20260502070356 22 214 0.0 0.0 0.00 0.00 0.00 89 1013.2
20260502065855 22 214 0.0 0.0 0.00 0.00 0.00 89 1013.1
20260502065352 22 214 0.0 0.0 0.00 0.00 0.00 89 1013.2
20260502064850 22 214 0.0 0.0 0.00 0.00 0.00 89 1013.3
20260502064348 22 214 0.0 0.0 0.00 0.00 0.00 89 1013.2
20260502063844 22 214 0.0 0.0 0.00 0.00 0.00 89 1013.4
20260502063342 22 214 0.0 0.0 0.00 0.00 0.00 89 1013.6
20260502062839 22 214 0.0 0.0 0.00 0.00 0.00 89 1013.5
20260502062337 22 214 0.0 0.0 0.00 0.00 0.00 89 1013.4
20260502061836 22 214 0.0 0.0 0.00 0.00 0.00 88 1013.5
20260502061333 22 214 0.0 0.0 0.00 0.00 0.00 88 1013.5
20260502060828 22 214 0.0 0.0 0.00 0.00 0.00 88 1013.4
20260502060323 22 214 0.0 0.0 0.00 0.00 0.00 87 1013.3
20260502055822 22 214 0.0 0.0 0.00 0.00 0.00 87 1013.5
20260502055319 23 214 0.0 0.0 0.00 0.00 0.00 87 1013.4
20260502054819 23 214 0.0 0.0 0.00 0.00 0.00 87 1013.4
20260502054316 22 214 0.0 0.0 0.00 0.00 0.00 88 1013.4
20260502053814 22 214 0.0 0.0 0.00 0.00 0.00 88 1013.5
20260502053310 23 214 0.0 0.0 0.00 0.00 0.00 88 1013.4
20260502052808 23 214 0.0 0.0 0.00 0.00 0.00 88 1013.8
20260502052306 23 214 0.0 0.0 0.00 0.00 0.00 88 1013.6
20260502051804 23 214 0.0 0.0 0.00 0.00 0.00 88 1013.6
20260502051302 22 214 0.0 0.0 0.00 0.00 0.00 88 1013.6
20260502050758 22 214 0.0 0.0 0.00 0.00 0.00 88 1013.7
20260502050254 22 216 0.0 0.0 0.00 0.00 0.00 88 1013.8
20260502045752 22 217 0.0 0.0 0.00 0.00 0.00 88 1013.9
20260502045248 22 217 0.0 0.0 0.00 0.00 0.00 88 1013.9
20260502044745 22 217 0.0 0.0 0.00 0.00 0.00 89 1014.1
20260502044241 22 218 0.0 0.0 0.00 0.00 0.00 89 1014.2
20260502043739 22 218 0.0 0.0 0.00 0.00 0.00 89 1014.0
20260502043236 22 218 0.0 0.0 0.00 0.00 0.00 89 1014.1
20260502042735 22 218 0.0 0.0 0.00 0.00 0.00 89 1014.2
20260502042233 22 218 0.0 0.0 0.00 0.00 0.00 88 1014.0
20260502041731 22 218 0.0 0.0 0.00 0.00 0.00 88 1014.4
20260502041228 22 218 0.0 0.0 0.00 0.00 0.00 88 1014.2
20260502040725 22 218 0.0 0.0 0.00 0.00 0.00 89 1014.2
20260502040221 22 219 0.0 0.0 0.00 0.00 0.00 88 1014.3
20260502035717 22 219 0.0 0.0 0.00 0.00 0.00 88 1014.3
20260502035215 22 219 0.0 0.0 0.00 0.00 0.00 88 1014.3
20260502034712 22 219 0.0 0.0 0.00 0.00 0.00 88 1014.3